Simultaneous Nadir Overpasses (SNOs) Predictions

Prediction of SNOs between AURA and NPP Satellite Orbit:

Table of predicted SNOs for the next 14.0 days since TLE Epoch: 7/5/2013
Index Date (AURA) Time (AURA) Lat,Lon (AURA) SZA (AURA ) Date (NPP) Time (NPP) Lat,Lon (NPP) SZA (NPP ) Distance(km) Time Diff (sec)
1 07/06/2013 03:42:05 -79.25,-160.45 109.31 07/06/2013 03:41:14 -79.25,-160.36 109.29 2.02 51
2 07/06/2013 04:31:26 79.43, 8.41 70.43 07/06/2013 04:31:53 79.43, 8.33 70.43 1.86 27
3 07/08/2013 19:58:32 -79.29, -44.28 109.06 07/08/2013 19:58:06 -79.29, -44.27 109.05 0.36 26
4 07/08/2013 20:47:50 79.59, 125.36 70.51 07/08/2013 20:48:41 79.60, 125.51 70.44 3.11 51
5 07/11/2013 12:14:59 -79.36, 72.06 108.82 07/11/2013 12:14:58 -79.36, 72.08 108.82 0.35 1
6 07/11/2013 13:02:14 81.78, -72.14 63.77 07/11/2013 13:03:27 81.11, -72.80 63.50 76.32 73
7 07/14/2013 03:42:05 79.17, 19.07 71.86 07/14/2013 03:41:12 79.17, 19.05 71.90 0.45 53
8 07/14/2013 04:31:25 -79.46,-171.41 108.57 07/14/2013 04:31:49 -79.47,-171.32 108.60 2.00 24
9 07/16/2013 19:58:30 79.30, 135.74 72.11 07/16/2013 19:58:02 79.31, 135.87 72.10 2.94 28
10 07/16/2013 20:47:53 -79.47, -55.47 108.15 07/16/2013 20:48:43 -79.47, -55.53 108.17 1.13 50
11 07/19/2013 12:14:55 79.37,-107.91 72.48 07/19/2013 12:14:53 79.37,-107.84 72.46 1.57 2




NCC Satellite Simultaneous Nadir Overpasses (SNOs) Prediction Service
